Volver al catálogo

KUIPER-00150

ActivoComunicacionesLEO
NORAD 65770·PAYLOAD·🇺🇸 United States

Lanzado Sep 25, 2025 desde Cape Canaveral Space Force Station

Loading…

Próximos Pases (próximas 24 horas)

TLE

ActualizadoSource: CelesTrak SupGP

Época: Sep 14, 2026, 13:58 UTC

1 65770C 25217J   26257.58204861  .00006668  00000+0  87302-3 0  2573
2 65770  51.9002 295.3448 0000582  88.7754 229.4464 14.79914103    14

Sigue KUIPER-00150 en tiempo real con AllMySat

Download on the App Store